Hourly Data Report for September 04, 2020

GIMLI CLIMATE
MANITOBA
Current Station Operator: ECCC - MSC

50°38'00.000" N
97°03'00.000" W
230.10 m
5031042
71748
PGH

Download Data

Hourly Data (September 2020)
Hourly Data Report for September 4, 2020
TIME Temp Definition
°C
Dew Point Definition
°C
Rel Hum Definition
%
Wind Dir Definition
10's deg

Wind Spd Definition
km/h
Visibility Definition
km
Stn Press Definition
kPa
Hmdx Definition


Wind Chill Definition


Weather Definition


00:00 6.9 3.3 78 28 9   98.30     LegendNANA
01:00 6.4 3.1 80 27 11   98.34     LegendNANA
02:00 7.5 4.0 79 27 13   98.37     LegendNANA
03:00 6.9 3.7 80 28 11   98.39     LegendNANA
04:00 7.2 3.8 79 27 13   98.44     LegendNANA
05:00 7.7 4.1 78 28 12   98.49     LegendNANA
06:00 7.4 3.8 78 29 10   98.54     LegendNANA
07:00 8.5 5.0 78 28 8   98.58     LegendNANA
08:00 11.9 5.8 66 28 13   98.63     LegendNANA
09:00 14.5 6.1 57 27 17   98.68     LegendNANA
10:00 16.1 4.2 45 28 19   98.71     LegendNANA
11:00 16.7 2.7 39 29 26   98.72     LegendNANA
12:00 16.7 1.8 37 29 25   98.72     LegendNANA
13:00 17.5 3.8 40 29 23   98.74     LegendNANA
14:00 18.3 2.6 35 30 19   98.76     LegendNANA
15:00 17.2 2.8 38 28 23   98.81     LegendNANA
16:00 18.2 2.4 35 28 28   98.82     LegendNANA
17:00 17.7 2.5 36 29 23   98.85     LegendNANA
18:00 17.0 3.4 40 28 13   98.84     LegendNANA
19:00 13.6 5.3 57 26 6   98.85     LegendNANA
20:00 10.3 5.6 73 23 6   98.90     LegendNANA
21:00 8.8 5.0 77 24 11   98.92     LegendNANA
22:00 7.9 4.6 80 25 11   98.97     LegendNANA
23:00 8.1 5.1 81 27 10   99.01     LegendNANA

Notes on Data Quality.

Legend

  • E = Estimated
  • M = Missing
  • NA = Not Available*
  • [empty] = Indicates an unobserved value
Date modified: